#timestamp,LO_Frequency,Hit,StdDev 
1595174415.2,286046999.5,N
1595174435.0,286046999.5,N
1595174435.9,286046999.5,N
1595174455.8,286046999.6,N
1595174475.6,286046999.6,N
1595174495.4,286046998.7,N
1595174515.3,286046999.3,N
1595174535.1,286046999.2,N
1595174555.9,286046996.6,Y
1595174575.7,286046998.8,P
1595174595.5,286046998.8,P
1595174615.4,286046998.7,P
1595174635.2,286046998.8,Y
1595174655.1,286047000.7,P
1595174656.0,286047000.7,N
1595174675.8,286047000.7,N
1595174695.6,286046998.4,N
1595174715.5,286046998.3,N
1595174735.3,286046998.9,N
1595174755.2,286046998.9,N
1595174775.9,286046996.6,Y
1595174795.7,286046999.3,P
1595174815.6,286046998.5,P
1595174835.4,286047000.6,N
1595174855.2,286047001.2,N
1595174875.1,286047000.9,N
1595174876.0,286047000.9,N
1595174895.8,286046998.3,N
1595174915.7,286047000.6,N
1595174935.5,286047000.4,N
1595174955.3,286047000.6,N
1595174975.2,286046999.9,N
1595174995.0,286047000.4,N
1595174995.9,286047000.4,N
1595175015.8,286046999.9,N
1595175035.6,286047000.2,N
1595175055.4,286046999.8,N
1595175075.3,286047000.0,N
1595175095.1,286046999.8,N
1595175115.8,286047000.2,N
1595175135.7,286047002.8,Y
1595175155.5,286047000.4,P
1595175175.4,286047000.3,N
1595175195.2,286047002.4,P
1595175215.0,286046999.9,N
1595175215.9,286046999.9,N
1595175235.8,286047002.5,N
1595175255.6,286046999.7,N
1595175275.5,286047002.5,N
1595175295.3,286047002.8,N
1595175315.1,286047001.6,N
1595175335.9,286047003.8,Y
1595175355.7,286047001.9,P
1595175375.6,286047002.2,P
1595175395.4,286047002.2,P
1595175415.2,286047002.3,Y
1595175435.1,286047000.7,P
1595175436.0,286047000.7,N
1595175455.8,286047000.7,N
1595175475.7,286047001.0,N
1595175495.5,286047000.7,N
1595175515.3,286046998.9,N
1595175535.2,286046999.0,N
1595175555.0,286047000.6,N
1595175555.9,286047000.6,N
1595175575.7,286047000.6,N
1595175595.6,286046998.1,N
1595175615.4,286047000.9,N
1595175635.3,286046999.3,N
1595175655.1,286046999.0,N
1595175675.8,286046998.2,N
1595175695.7,286046998.7,N
1595175715.5,286046998.7,N
1595175735.4,286047000.7,N
1595175755.2,286047000.4,N
1595175775.0,286046998.2,N
1595175776.0,286046998.2,N
1595175795.8,286046998.9,N
1595175815.6,286046999.6,N
1595175835.0,286046996.8,N
1595175836.0,286046996.8,N
1595175855.8,286046997.5,N
1595175875.6,286046997.4,N
1595175895.5,286046997.3,N
1595175915.3,286046995.0,Y
1595175935.1,286046997.6,P
1595175955.9,286046995.0,P
1595175975.7,286046995.3,N
1595175995.6,286046995.8,N
1595176015.4,286046993.3,Y
1595176035.2,286046997.2,P
1595176055.1,286046997.6,P
1595176056.0,286046997.6,P
1595176075.8,286046995.3,Y
1595176095.7,286047001.0,P
1595176115.5,286047001.1,N
1595176135.3,286046998.5,N
1595176155.2,286046998.6,N
1595176175.0,286047001.2,N
1595176175.9,286047001.2,N
1595176195.8,286047000.6,N
1595176215.6,286047000.8,N
1595176235.4,286046999.9,N
1595176255.3,286047000.4,N
1595176275.1,286047000.7,N
1595176295.8,286047000.4,N
1595176315.7,286046998.1,N
1595176335.5,286047001.0,N
1595176355.4,286046998.4,N
1595176375.2,286046998.2,N
1595176395.0,286047001.2,N
1595176395.9,286047001.2,N
1595176415.8,286047000.8,N
1595176435.6,286047001.0,N
1595176455.5,286046998.6,N
1595176475.3,286046998.6,N
1595176495.1,286047000.5,N
1595176515.9,286047000.0,N
1595176535.7,286047001.6,N
1595176555.6,286047002.7,N
1595176575.4,286047002.2,N
1595176595.2,286047001.6,N
1595176615.1,286047001.5,N
1595176616.0,286047001.5,N
1595176635.8,286047001.4,N
1595176655.7,286047002.6,N
1595176675.5,286047001.9,N
1595176695.3,286047001.7,N
1595176715.2,286047003.9,Y
1595176735.0,286047001.5,P
1595176735.9,286047001.5,P
1595176755.8,286047001.8,P
1595176775.6,286047001.3,Y
1595176795.4,286047001.7,P
1595176815.3,286047004.3,P
1595176835.1,286047002.9,N
1595176855.9,286047003.5,Y
1595176875.7,286047000.6,P
1595176895.5,286046998.9,N
1595176915.4,286047000.9,N
1595176935.2,286047000.5,N
1595176955.1,286047001.2,N
1595176956.0,286047001.2,N
1595176975.8,286046998.9,N
1595176995.6,286046998.1,N
1595177015.5,286046998.4,N
1595177035.3,286046998.3,N
1595177055.1,286046998.2,N
1595177075.9,286047000.8,N
1595177095.7,286046996.6,N
1595177115.6,286046996.7,N
1595177135.4,286046997.1,N
1595177155.2,286046999.2,N
1595177175.1,286046997.1,N
1595177176.0,286046997.1,N
1595177195.8,286046997.0,N
1595177215.7,286046999.6,N
1595177235.5,286046997.2,N
1595177255.3,286046997.8,N
1595177275.2,286046995.1,N
1595177295.0,286046997.5,N
1595177295.9,286046997.5,N
1595177315.7,286046997.6,N
1595177335.6,286046997.3,N
1595177355.4,286046997.2,N
1595177375.3,286046996.6,N
1595177395.1,286046999.1,N
1595177396.0,286046999.1,N
1595177415.8,286046999.2,N
1595177435.7,286046997.0,N
1595177455.5,286046997.3,N
1595177475.4,286046997.9,N
1595177495.2,286046997.7,N
1595177515.0,286046997.1,N
1595177515.9,286046997.1,N
1595177535.8,286046997.2,N
1595177555.6,286046999.6,N
1595177575.4,286046998.6,N
1595177595.3,286047001.2,N
1595177615.1,286047001.2,N
1595177635.9,286046998.3,N
1595177655.7,286046998.1,N
1595177675.5,286046998.8,N
1595177695.4,286046998.9,N
1595177715.2,286046996.7,N
1595177735.1,286046996.8,N
1595177736.0,286046996.8,N
1595177755.8,286046996.5,N
1595177775.6,286046997.0,N
1595177795.5,286046997.1,N
1595177815.3,286046997.1,N
1595177835.2,286046996.8,N
1595177855.9,286046997.3,N
1595177875.7,286046997.1,N
1595177895.6,286046999.2,N
1595177915.4,286046998.3,N
1595177935.2,286046998.3,N
1595177955.1,286046998.9,N
1595177956.0,286046998.9,N
1595177975.8,286046998.1,N
1595177995.7,286047000.7,N
